This demonstration page uses our WeatherBlox Daily Observations layout. Learn more.

Left ArrowRight Arrow

Hourly Observations for July 25, 2020

Temp ( °F °C ) Dew Point ( °F °C ) Humidity (%) Winds ( mph kmh ) Pressure ( in mb ) Visibility ( mi km ) Precip ( " mm )
12:51 am 00:51 Mostly Clear 75 23.9 69 20.6 82 82 SE 5 7 29.86 1011 10 16.0934 0 0
1:51 am 01:51 Mostly Cloudy 74 23.3 68 20 82 82 SE 6 9 29.85 1011 10 16.0934 0 0
2:51 am 02:51 Cloudy 73 22.8 68 20 84 84 SSE 5 7 29.85 1011 10 16.0934 0 0
3:51 am 03:51 Cloudy 73 22.8 68 20 84 84 Calm 29.84 1011 10 16.0934 0 0
4:51 am 04:51 Mostly Cloudy 73 22.8 68 20 84 84 ESE 6 9 29.84 1011 10 16.0934 0 0
5:51 am 05:51 Cloudy 73 22.8 67 19.4 81 81 SE 8 13 29.86 1011 10 16.0934 0 0
6:51 am 06:51 Mostly Cloudy 74 23.3 68 20 82 82 ESE 6 9 29.88 1012 10 16.0934 0 0
7:51 am 07:51 Partly Cloudy 78 25.6 67 19.4 69 69 ESE 6 9 29.88 1012 10 16.0934 0 0
8:51 am 08:51 Sunny 80 26.7 67 19.4 64 64 SE 6 9 29.88 1012 10 16.0934 0 0
9:51 am 09:51 Mostly Cloudy 83 28.3 66 18.9 57 57 ESE 6 9 29.88 1012 10 16.0934 0 0
10:51 am 10:51 Mostly Sunny 85 29.4 65 18.3 51 51 S 7 11 29.86 1011 10 16.0934 0 0
11:51 am 11:51 Mostly Cloudy 86 30 63 17.2 46 46 S 6 9 29.84 1011 10 16.0934 0 0
12:51 pm 12:51 Mostly Sunny 88 31.1 61 16.1 40 40 W 8 13 29.82 1010 10 16.0934 0 0
1:51 pm 13:51 Sunny 89 31.7 61 16.1 39 39 WNW 6 9 29.8 1009 10 16.0934 0 0
2:42 pm 14:42 Mostly Cloudy 89 31.7 60 15.6 38 38 N 14 22 29.7 1006 10 16.0934 0 0
2:51 pm 14:51 Cloudy 90 32.2 60 15.6 37 37 N 10 17 29.79 1009 10 16.0934 0 0
3:51 pm 15:51 Sunny 91 32.8 61 16.1 37 37 NW 9 15 29.77 1008 10 16.0934 0 0
4:51 pm 16:51 Partly Cloudy 92 33.3 61 16.1 36 36 NNW 8 13 29.76 1008 10 16.0934 0 0
5:51 pm 17:51 Cloudy 91 32.8 61 16.1 37 37 WNW 16 26 29.77 1008 10 16.0934 0 0
6:51 pm 18:51 Mostly Cloudy 87 30.6 57 13.9 36 36 NW 13 20 29.79 1009 10 16.0934 0 0
7:51 pm 19:51 Mostly Clear 86 30 59 15 40 40 WNW 8 13 29.8 1009 10 16.0934 0 0
8:51 pm 20:51 Clear 83 28.3 62 16.7 49 49 W 7 11 29.82 1010 10 16.0934 0 0
9:51 pm 21:51 Clear 82 27.8 62 16.7 51 51 N 3 6 29.83 1010 10 16.0934 0 0
10:51 pm 22:51 Partly Cloudy 82 27.8 63 17.2 53 53 Calm 29.83 1010 10 16.0934 0 0
11:51 pm 23:51 Partly Cloudy 80 26.7 63 17.2 56 56 SSW 3 6 29.83 1010 10 16.0934 0 0

Powered by AerisWeather